EHI
95 96 96 81 47 12 1 0 0 0 0 0 0 0 0 0 1 2 3 14 26 22 11 9 6 4 3 3 3 3 3 3 3 3 3 3 3 3 3 3 3 3 3 3 3 3 3 3 3
94 96 92 68 30 6 0 0 0 0 0 0 0 0 0 0 0 1 3 12 20 15 11 10 8 4 3 3 3 3 3 3 3 3 3 3 3 3 3 3 3 3 3 3 3 3 3 3 2
94 94 81 47 13 0 0 0 0 0 0 0 0 0 0 0 0 0 3 8 13 17 21 22 14 6 3 4 3 3 3 3 3 3 2 2 2 2 2 2 1 1 2 3 3 3 2 1 1
84 76 54 23 4 0 0 0 0 0 0 0 0 0 1 1 1 0 1 4 12 27 38 34 22 11 5 5 4 3 4 4 3 1 1 1 1 1 1 1 0 0 1 1 2 2 2 1 1
54 41 21 6 0 0 0 0 0 0 0 0 0 0 1 2 1 0 0 3 13 34 45 39 29 20 11 7 5 4 5 5 3 1 0 0 0 0 0 0 0 0 0 0 1 2 3 3 2
24 14 4 0 0 0 0 0 0 1 2 1 0 0 0 1 1 0 0 2 11 31 44 41 33 24 14 9 7 5 5 6 5 2 0 0 0 0 0 0 0 0 0 0 1 2 3 3 3
12 6 1 1 1 1 0 1 3 6 8 8 6 2 0 0 1 2 2 3 7 20 34 38 31 21 14 11 9 7 6 6 6 3 1 0 0 0 0 0 0 0 0 0 1 2 3 3 3
6 4 1 1 3 2 1 3 10 17 21 23 20 10 4 2 4 6 7 8 9 13 18 23 24 20 15 13 14 12 9 7 7 5 3 1 0 0 1 1 1 1 0 0 1 2 3 3 3
3 2 2 5 9 12 12 12 18 26 30 32 29 20 13 10 11 14 15 18 20 18 15 16 19 17 14 17 21 18 11 9 8 7 5 3 1 0 1 4 7 6 2 0 1 2 2 2 2
3 3 4 8 14 20 23 21 22 24 25 25 24 21 18 17 18 19 21 23 24 21 17 17 18 15 14 18 23 19 14 13 11 8 7 6 2 0 1 6 13 11 3 0 0 1 1 1 1
3 4 5 7 11 16 18 17 17 14 12 12 12 12 13 14 14 14 15 16 16 14 12 12 13 13 15 18 18 16 16 17 12 8 9 7 4 1 1 5 10 8 2 0 0 0 0 0 0
2 3 5 5 8 11 9 6 6 5 4 4 4 4 5 5 6 5 5 6 6 5 4 5 5 7 12 16 16 15 15 14 10 7 8 8 4 2 1 2 3 2 0 0 0 0 0 0 0
1 1 2 5 7 9 6 2 1 1 1 1 1 1 1 1 1 1 1 1 1 1 1 1 2 3 5 9 11 11 11 10 8 6 6 6 5 3 1 0 0 0 0 0 0 0 0 0 0
0 0 1 2 3 3 2 0 0 0 0 0 0 0 0 0 0 0 0 0 0 0 0 0 1 1 1 3 4 6 7 7 6 5 3 3 5 5 3 1 0 0 0 0 0 0 0 0 0
0 0 0 0 0 0 0 0 0 0 0 0 0 0 0 0 0 0 0 0 0 0 0 0 0 0 0 0 2 3 4 5 4 3 2 1 3 5 4 3 2 1 0 0 0 0 0 0 0
0 0 0 0 0 0 0 0 0 0 0 0 0 0 0 0 0 0 0 0 0 0 0 0 0 0 0 0 2 3 4 5 4 3 1 1 1 3 4 4 4 3 1 0 0 0 0 0 0
0 0 0 0 0 0 0 0 0 0 0 0 0 0 0 0 0 0 0 0 0 0 0 0 0 0 0 0 1 3 4 4 4 2 1 0 1 1 2 4 5 4 2 1 0 0 0 0 0
0 0 0 0 0 0 0 0 0 0 0 0 0 0 0 0 0 0 0 0 0 0 0 0 0 0 0 0 1 2 4 4 3 1 0 1 1 1 1 3 5 5 4 1 0 0 0 0 0
0 0 0 0 0 0 0 0 0 0 0 0 0 0 0 0 0 0 0 0 0 0 0 0 0 0 0 0 0 1 3 4 3 1 1 1 2 1 1 2 5 8 7 4 1 1 1 0 0
0 0 0 0 0 0 0 0 0 0 0 0 0 0 0 0 0 0 0 0 0 0 0 0 0 0 0 0 0 0 1 2 2 2 2 2 1 2 2 2 4 7 8 6 4 2 1 0 0
0 0 0 0 0 0 0 0 0 0 0 0 0 0 0 0 0 0 0 0 0 0 0 0 0 0 0 0 0 0 0 1 1 2 2 1 0 1 2 3 3 4 7 8 6 4 2 1 0
0 0 0 0 0 0 0 0 0 0 0 0 0 0 0 0 0 0 0 0 0 0 0 0 0 0 0 0 0 0 1 1 2 2 2 1 0 0 1 2 2 3 5 8 9 6 4 2 1
0 0 0 0 0 0 0 0 0 0 0 0 0 0 0 0 0 0 0 0 0 0 0 0 0 0 0 0 1 1 1 2 3 2 1 0 0 0 0 1 2 3 5 7 9 8 6 4 2
0 0 0 0 0 0 0 0 0 0 0 0 0 0 0 0 0 0 0 0 0 0 0 0 0 0 0 0 0 0 1 1 1 1 0 0 0 0 1 2 2 3 4 7 9 8 6 6 4
0 0 0 0 0 0 0 0 0 0 0 0 0 0 0 0 0 0 0 0 0 0 0 0 0 0 0 0 0 0 0 0 0 0 0 0 0 0 1 2 2 2 3 5 8 8 8 7 6
0 0 0 0 0 0 0 0 0 0 0 0 0 0 0 0 0 0 0 0 0 0 0 0 0 0 0 0 0 0 0 0 0 0 0 0 0 0 0 1 2 1 1 2 5 9 9 7 5
0 0 0 0 0 0 0 0 0 0 0 0 0 0 0 0 0 0 0 0 0 0 0 0 0 0 0 0 0 0 0 0 0 0 0 0 0 0 0 1 2 1 1 1 2 6 8 6 3
0 0 0 0 0 0 0 0 0 0 0 0 0 0 0 0 0 0 0 0 0 0 0 0 0 0 0 0 0 0 0 0 0 0 0 0 0 0 0 1 2 2 1 1 2 4 5 4 2
0 0 0 0 0 0 0 0 0 0 0 0 0 0 0 0 0 0 0 0 0 0 0 0 0 0 0 0 0 0 0 0 0 0 0 0 0 0 0 1 1 1 1 2 3 3 3 3 2
0 0 0 0 0 0 0 0 0 0 0 0 0 0 0 0 0 0 0 0 0 0 0 0 0 0 0 0 0 0 0 0 0 0 0 0 0 0 0 1 0 0 0 1 2 2 2 2 2
Wind_Speed
9 10 8 4 3 2 9 9 11 9 11 10 11 10 16 14 10 8 5 10 17 16 14 13 12 11 10 9 9 8 8 7 6 6 5 4 4 4 3 3 2 2 2 2 2 2 2 3 4
10 8 5 2 1 6 7 7 10 11 11 10 14 15 16 14 13 10 7 12 16 16 13 12 13 11 10 9 8 8 7 7 6 5 5 4 4 3 3 3 2 2 2 2 2 2 2 3 4
11 6 3 2 5 7 7 7 7 10 12 12 16 17 13 9 12 9 8 12 14 14 13 14 13 11 10 8 8 7 7 6 6 5 4 4 3 3 3 2 2 2 2 2 2 2 3 3 4
6 3 3 1 9 8 7 8 8 11 14 16 14 12 13 11 12 12 11 13 13 13 14 13 12 10 9 8 7 7 6 6 5 5 5 4 4 3 3 2 2 2 2 2 2 3 3 3 3
3 1 2 5 9 9 9 11 11 11 14 16 18 16 14 13 13 11 10 11 11 13 15 14 13 11 9 8 7 7 6 6 6 5 5 4 4 4 3 3 3 2 2 2 3 3 3 4 3
2 1 1 3 8 6 8 12 11 11 14 15 16 16 13 11 9 8 8 7 9 11 14 14 15 13 11 9 8 7 7 7 6 6 6 5 5 5 4 4 3 3 2 2 3 3 3 3 3
4 1 2 5 6 5 10 11 11 13 15 14 12 13 10 10 6 7 7 6 7 8 11 12 12 12 12 11 10 9 8 8 8 8 7 7 6 6 6 5 5 4 3 3 3 4 4 4 4
4 2 3 3 6 6 10 12 14 15 15 16 14 10 8 6 6 7 6 6 5 4 4 8 10 11 10 10 13 12 11 10 10 9 9 9 8 8 8 8 7 6 6 5 5 5 5 5 5
5 3 2 1 5 6 9 11 13 15 16 18 17 14 10 9 9 8 7 8 7 7 6 5 3 4 7 10 12 12 12 11 10 9 11 9 7 8 8 11 11 10 8 7 6 6 7 7 7
0 3 2 2 9 10 13 12 7 11 15 13 14 14 14 13 12 12 11 11 10 10 10 9 8 6 4 1 6 6 7 7 7 6 7 7 7 6 8 11 14 13 10 9 9 9 8 7 5
5 5 5 8 9 11 11 12 16 10 11 10 10 11 11 13 12 11 10 9 9 9 10 10 9 8 6 4 2 1 1 3 5 6 6 6 6 4 4 5 8 8 9 6 7 7 6 7 6
7 9 8 8 8 10 10 9 11 14 8 6 7 8 9 10 9 9 8 7 7 8 8 9 9 8 7 5 3 1 1 0 1 4 5 5 4 4 4 4 6 6 5 6 6 6 9 11 10
8 8 10 12 13 16 16 14 11 9 6 5 5 7 8 8 7 5 4 4 4 4 4 5 5 6 6 5 3 3 1 0 1 2 2 4 4 4 4 4 5 7 7 7 5 8 9 9 7
7 9 9 8 9 10 13 10 8 6 3 4 5 6 7 6 6 5 6 6 5 4 4 3 4 4 4 3 3 3 3 2 1 2 3 3 4 4 3 4 3 4 5 5 6 6 5 4 2
6 7 7 7 9 10 9 10 8 4 3 4 5 4 5 6 6 7 8 8 8 7 6 5 4 2 3 3 3 3 3 3 2 2 3 2 3 4 3 3 3 3 3 4 4 6 4 3 3
8 7 4 2 2 5 4 6 6 4 4 5 5 6 6 6 8 9 10 10 9 9 8 7 7 5 4 4 3 3 3 3 3 3 2 2 3 3 3 3 3 3 2 2 2 2 2 2 2
6 4 5 5 1 2 6 7 5 3 5 5 6 7 7 8 10 11 11 11 9 8 8 9 8 6 5 5 4 4 4 4 3 3 3 3 4 4 3 3 3 3 2 2 2 1 1 1 2
7 8 5 6 4 3 6 6 6 4 5 7 6 7 9 10 11 12 12 10 9 8 9 10 8 7 6 4 4 3 4 3 3 3 4 5 4 4 3 3 4 3 2 2 1 1 1 1 1
11 12 10 7 5 3 3 4 7 6 6 8 9 10 10 11 12 12 11 12 11 10 10 10 10 8 6 4 4 4 4 3 3 4 5 5 5 5 5 4 4 4 4 4 4 2 2 2 1
11 11 8 6 6 3 1 3 7 5 6 8 10 11 12 12 12 11 12 13 12 10 10 11 10 9 7 5 5 5 5 4 5 4 4 5 6 7 7 7 5 5 5 6 5 4 2 2 1
11 8 10 8 2 3 4 4 7 6 6 8 9 10 12 12 13 13 12 11 11 11 11 11 10 10 8 8 5 6 5 4 4 5 4 4 5 6 7 7 6 7 6 6 7 6 6 5 3
8 9 8 8 6 5 5 2 8 5 6 7 8 9 10 10 10 11 11 11 12 12 11 11 11 11 9 8 6 7 6 6 6 5 4 5 5 5 6 6 7 7 6 7 7 7 6 6 5
7 8 8 9 9 8 6 3 7 4 5 7 8 8 8 9 9 9 9 9 10 10 10 9 10 10 9 9 8 6 6 5 5 5 5 5 4 4 4 5 5 6 6 7 8 8 8 7 6
6 9 10 8 8 7 3 1 6 4 6 7 8 8 8 8 8 8 8 8 8 8 9 9 9 9 9 9 8 7 7 7 7 6 5 4 3 3 4 4 4 4 5 7 7 8 9 8 8
6 7 5 4 4 0 3 2 6 6 5 5 6 7 7 6 7 7 7 8 8 8 9 8 9 9 9 9 9 8 8 7 7 7 5 5 3 3 4 3 2 2 3 4 5 6 7 9 9
8 6 6 6 3 3 3 4 7 5 4 3 5 6 7 6 6 6 6 6 6 6 7 7 8 8 8 8 8 7 8 6 5 6 6 5 4 3 4 3 2 1 1 2 2 3 5 6 7
8 7 6 6 11 4 6 8 7 5 4 3 5 6 6 6 6 6 6 6 6 5 5 6 6 7 7 8 7 7 8 7 7 7 7 5 5 4 5 3 2 1 0 1 1 1 2 3 4
2 5 6 6 6 5 0 4 5 4 2 2 4 5 5 6 6 6 5 5 5 4 4 5 5 6 7 7 6 6 7 6 6 7 7 7 7 6 5 5 4 4 3 2 1 1 1 2 2
5 3 4 5 3 3 3 4 5 4 2 2 3 3 4 4 4 4 4 4 4 5 5 5 5 6 6 6 6 6 6 6 6 6 7 7 7 7 7 7 7 6 5 4 3 2 2 2 2
2 4 6 5 6 3 2 4 5 4 2 1 1 2 2 2 3 2 3 3 3 4 4 5 5 5 5 5 6 6 6 7 7 7 7 7 8 8 7 7 7 8 8 6 5 4 3 2 2
Wind_Direction
242 231 228 245 263 71 62 56 52 36 40 44 32 48 65 56 55 85 149 134 121 121 129 136 136 133 130 126 123 122 120 121 122 123 122 118 113 108 103 94 84 74 66 66 62 53 64 73 68
257 223 228 257 303 77 64 59 57 41 42 58 54 50 65 60 78 103 127 117 123 126 140 138 140 140 138 137 136 134 132 131 130 130 130 127 124 120 115 111 108 101 96 94 89 89 96 101 93
257 239 246 231 65 74 74 60 56 55 47 63 73 60 51 56 82 103 118 127 124 129 130 129 144 144 144 145 146 144 143 141 140 140 141 141 138 135 130 123 118 114 114 116 109 103 116 119 121
257 247 263 90 80 74 71 65 51 53 52 59 67 67 60 56 83 111 139 132 126 126 123 135 145 148 152 155 158 158 156 157 156 156 157 155 157 157 153 146 137 125 122 126 127 131 137 140 142
247 315 360 75 75 62 61 64 53 50 51 69 80 82 75 73 91 122 138 129 133 130 130 143 150 156 162 168 171 169 171 173 173 172 170 171 175 177 172 168 159 146 137 136 143 151 152 156 160
271 92 59 91 86 76 60 60 56 48 47 56 84 88 79 77 90 110 111 121 124 127 136 144 158 163 171 179 182 183 187 188 190 189 188 190 192 189 188 182 173 166 162 157 159 166 168 166 174
278 238 137 108 84 65 75 70 63 56 42 37 74 89 78 64 63 78 89 86 103 124 138 151 163 171 179 185 189 192 197 199 201 202 200 203 206 205 202 195 189 183 180 183 180 179 181 183 192
281 333 34 84 103 67 64 68 65 61 49 36 42 68 72 53 56 64 68 71 74 81 113 153 164 172 179 188 195 197 200 202 206 208 207 209 212 214 211 204 200 196 194 196 195 194 196 200 206
272 58 32 61 103 79 74 79 79 66 60 52 49 53 54 46 46 50 49 43 39 31 26 40 107 164 186 187 186 193 202 205 206 210 213 211 214 211 208 215 192 194 199 202 204 205 208 212 216
20 95 139 62 92 85 61 45 50 71 51 40 38 36 34 40 40 40 38 32 29 22 16 19 20 19 356 312 163 183 192 193 204 211 204 207 225 222 211 198 185 191 198 204 211 214 216 222 217
61 89 78 67 87 106 92 56 34 77 53 35 28 29 33 37 38 36 31 27 19 14 14 9 5 7 12 3 10 175 172 174 200 217 206 208 226 239 212 174 179 190 198 207 209 214 222 220 219
72 58 66 64 60 74 77 79 61 59 62 48 44 36 39 39 36 31 28 24 20 13 6 3 359 357 355 356 352 351 25 141 231 220 208 202 222 235 230 191 185 188 193 205 195 210 217 222 215
102 94 87 85 83 85 84 83 80 66 67 60 54 48 44 42 37 32 24 22 25 18 357 359 354 354 347 347 335 337 341 64 271 264 212 194 204 226 241 229 198 194 194 198 206 211 224 220 209
135 134 132 118 103 98 95 84 74 53 40 54 44 46 35 34 21 18 21 11 6 3 355 354 346 342 334 334 327 320 328 320 279 257 242 219 203 210 227 247 225 214 207 194 199 221 243 217 228
147 161 148 136 137 144 126 82 67 37 9 35 19 38 32 18 6 16 12 3 357 352 345 344 322 317 317 319 311 307 297 288 279 275 263 246 214 207 215 241 244 239 234 221 212 226 234 191 193
207 200 147 93 151 176 250 89 70 20 7 20 2 8 18 12 7 14 8 359 353 349 339 329 320 326 317 299 286 276 271 264 257 260 271 274 253 221 198 225 238 237 242 258 238 269 258 187 178
226 242 161 181 197 123 76 93 81 39 3 11 10 359 3 7 10 11 3 354 347 340 331 323 323 320 310 301 286 272 263 254 247 239 236 243 251 240 210 206 223 236 225 228 231 234 266 242 198
321 298 269 154 103 68 100 116 108 54 17 9 6 5 9 10 8 10 359 351 343 340 335 327 323 319 317 306 296 287 279 271 260 242 228 226 231 243 239 214 209 211 222 241 226 220 259 269 227
312 300 300 100 97 34 72 102 99 64 27 17 10 12 9 8 4 7 359 357 352 348 340 330 327 327 325 321 314 310 301 295 284 264 250 227 222 227 232 232 214 200 196 204 214 206 224 247 281
297 297 311 99 83 0 220 143 107 81 51 37 15 9 9 3 0 1 1 1 351 345 339 333 333 333 332 323 314 302 298 291 281 275 266 247 229 220 227 224 216 204 198 197 204 201 199 216 225
314 346 350 347 29 258 242 180 129 116 69 48 26 15 9 4 0 358 1 359 353 352 346 339 340 338 335 330 322 314 305 293 285 285 281 267 254 236 227 225 219 207 199 198 200 198 195 201 212
333 22 337 307 283 244 211 214 130 120 72 43 28 18 12 9 4 4 3 359 357 355 351 347 347 346 344 337 327 319 307 298 293 291 286 283 269 257 241 233 225 215 205 199 198 196 194 192 206
330 330 295 279 269 268 230 227 126 106 40 29 25 16 16 11 8 8 4 359 360 357 357 353 354 353 350 346 339 329 320 307 303 300 296 292 284 275 265 246 232 220 210 203 200 197 194 198 200
288 272 251 244 256 250 226 265 108 62 27 16 18 16 17 9 8 9 8 359 0 2 1 359 2 360 356 354 352 346 336 332 331 326 315 308 304 294 280 264 247 231 218 211 205 204 199 202 202
263 297 285 228 214 211 89 87 89 73 49 25 19 19 15 14 11 8 8 0 1 4 2 360 1 358 357 357 357 354 349 348 348 340 330 325 321 312 303 289 266 244 233 223 207 205 207 205 203
318 307 324 318 327 146 169 92 105 97 89 48 43 27 12 16 15 10 9 4 2 4 0 359 360 358 357 0 359 1 1 359 358 354 348 347 342 329 329 327 306 272 249 239 212 205 210 202 207
326 344 345 297 294 294 127 117 133 144 108 65 45 28 15 12 14 13 8 7 5 4 359 356 359 0 358 359 358 5 6 6 4 1 358 355 348 352 359 357 356 352 341 264 195 194 204 198 197
321 317 313 303 340 334 319 124 121 121 66 58 52 27 15 11 8 10 1 3 5 0 360 2 9 7 1 359 4 10 6 5 7 4 4 359 356 3 13 19 24 28 35 49 75 113 168 161 162
337 311 323 293 272 313 341 75 73 85 74 32 50 29 7 2 357 356 356 2 8 1 11 8 14 15 6 360 359 7 8 3 10 8 3 6 6 12 22 23 30 34 34 36 44 49 65 96 114
13 358 337 329 346 338 307 100 95 102 113 78 47 21 354 345 333 338 359 359 10 5 10 14 15 13 8 1 2 11 13 11 16 11 5 11 14 14 23 30 32 32 28 23 30 42 54 72 90